If you wish to contribute or participate in the discussions about articles you are invited to join SKYbrary as a registered user

 Actions

Bandar Abbas International Airport

From SKYbrary Wiki

OIKB
Airport
ICAO: OIKB – IATA: BND
Summary
Name Bandar Abbas International Airport
Region Middle East
Territory Iran IR.gif
Location Bandar Abbas, Homozgan
Serving Bandar Abbas
Elevation 6.706 m
22 ft6.706 m
Coordinates 27° 12' 34.19" N, 56° 22' 7.56" E
Runways
Designator Length Width Surface ROPS
03L/21R 3457 m11,341.864 ft
30 m98.425 ft
ASP yes/yes
03R/21L 3660 m12,007.874 ft
45 m147.638 ft
ASP yes/yes


METAR
Observation OIKB 080900Z 19016KT 4000 HZ FEW030 OVC190 37/28 Q0994 A2936 NOSIG
Station Bandarabbass
Date/Time 08 August 2020 09:00:00
Wind direction 190°
Wind speed 16 kts
Lowest cloud amount few clouds
Temperature 37°C
Dew point 28°C
Humidity 60%
QNH 994 hPa
Weather condition n/a

International airport on eastern side of the city of Bandar Abbas, Iran.

Climatology

Warm desert climate (Köppen climate classification BWh).

Maps

Terrain

Loading map...

Airport Layout

Loading map...


Accidents & Serious Incidents at or in vicinity of OIKB

None on SKYbrary